Weather History for Rice Lake, WI

Change the Weather History Date:

Sunday, April 27, 2014

  Actual Average Record
Temperature  
Mean Temperature 39 °F -  
Max Temperature 42 °F 60 °F 73 °F (2001)
Min Temperature 34 °F 37 °F 24 °F (2004)
Degree Days  
Heating Degree Days 26    
Moisture  
Dew Point 33 °F    
Average Humidity 82    
Maximum Humidity 96    
Minimum Humidity 62    
Precipitation  
Precipitation 0.45 in - - ()
Sea Level Pressure  
Sea Level Pressure 29.92 in    
Wind  
Wind Speed 15 mph (East)    
Max Wind Speed 24 mph    
Max Gust Speed 33 mph    
Visibility 9 miles    
Events Rain , Thunderstorm    
Averages and records for this station are not official NWS values.
T = Trace of Precipitation, MM = Missing Value Source: NWS Daily Summary

Daily Weather History Graph

Daily Weather History Graph

Search for Another Location

Airport:

Trip Planner

Search our weather history database for the weather conditions in past years. The results will help you decide how hot, cold, wet, or windy it might be!

Date:

Astronomy

Apr. 27, 2014 Rise Set
Actual Time 6:01 AM CDT 8:08 PM CDT
Civil Twilight 5:29 AM CDT 8:40 PM CDT
Nautical Twilight 4:49 AM CDT 9:20 PM CDT
Astronomical Twilight 4:05 AM CDT 10:05 PM CDT
Moon 5:08 AM CDT (4/27) 6:38 PM CDT (4/27)
Length of Visible Light 15h 11m
Length of Day
14h 07m
Waning Crescent, 3% of the Moon is Illuminated
Apr 27
Waning Crescent
Apr 29
New
May 6
First Quarter
May 14
Full
May 21
Last Quarter

Hourly Weather History & Observations

Time (CDT) Temp. Windchill Dew Point Humidity Pressure Visibility Wind Dir Wind Speed Gust Speed Precip Events Conditions
12:15 AM 44.1 °F 38.1 °F 31.6 °F 62% 30.03 in 10.0 mi East 11.5 mph 18.4 mph N/A   Light Drizzle
12:35 AM 43.7 °F 38.1 °F 32.0 °F 63% 30.02 in 10.0 mi East 10.4 mph 17.3 mph N/A Rain Light Rain
1:15 AM 42.3 °F 35.5 °F 33.1 °F 70% 30.01 in 10.0 mi East 12.7 mph 18.4 mph N/A Rain Light Rain
1:35 AM 41.5 °F 34.6 °F 33.1 °F 72% 30.00 in 10.0 mi ESE 12.7 mph - N/A Rain Light Rain
1:55 AM 40.8 °F 34.1 °F 33.8 °F 76% 30.00 in 10.0 mi East 11.5 mph - N/A Rain Light Rain
2:15 AM 40.6 °F 32.3 °F 33.1 °F 74% 29.99 in 10.0 mi East 16.1 mph 21.9 mph N/A   Overcast
2:35 AM 40.3 °F 33.9 °F 32.7 °F 74% 29.97 in 10.0 mi East 10.4 mph 21.9 mph N/A   Overcast
2:55 AM 40.1 °F 34.1 °F 32.4 °F 74% 29.98 in 10.0 mi East 9.2 mph 21.9 mph N/A   Overcast
3:15 AM 39.6 °F 31.0 °F 31.5 °F 73% 29.98 in 10.0 mi East 16.1 mph 24.2 mph N/A   Overcast
3:35 AM 39.4 °F 32.3 °F 30.9 °F 72% 29.98 in 10.0 mi ESE 11.5 mph 17.3 mph N/A   Overcast
3:55 AM 39.2 °F 32.0 °F 30.2 °F 70% 29.98 in 10.0 mi East 11.5 mph 18.4 mph N/A   Overcast
4:15 AM 39.2 °F 30.5 °F 28.2 °F 65% 29.99 in 10.0 mi East 16.1 mph 21.9 mph N/A   Overcast
4:35 AM 38.7 °F 30.5 °F 27.7 °F 65% 29.99 in 10.0 mi ESE 13.8 mph 24.2 mph N/A Rain Light Rain
4:55 AM 37.4 °F 27.2 °F 28.9 °F 71% 29.99 in 10.0 mi East 19.6 mph 24.2 mph N/A Rain Light Rain
5:15 AM 36.5 °F 29.7 °F 30.0 °F 77% 30.01 in 10.0 mi ESE 9.2 mph - N/A Rain Light Rain
5:35 AM 36.1 °F 27.3 °F 29.8 °F 78% 30.01 in 10.0 mi East 13.8 mph 19.6 mph 0.01 in Rain Light Rain
5:55 AM 35.4 °F 26.0 °F 30.6 °F 82% 30.00 in 5.0 mi East 15.0 mph 20.7 mph 0.02 in Rain Light Rain
6:15 AM 34.9 °F 24.6 °F 30.9 °F 85% 29.99 in 10.0 mi East 17.3 mph 21.9 mph N/A Rain Light Rain
6:35 AM 34.7 °F 24.7 °F 31.1 °F 87% 29.96 in 10.0 mi East 16.1 mph 24.2 mph N/A   Overcast
6:55 AM 35.1 °F 24.5 °F 31.1 °F 85% 29.95 in 10.0 mi East 18.4 mph 28.8 mph N/A   Overcast
7:15 AM 35.2 °F 26.2 °F 31.1 °F 85% 29.96 in 10.0 mi East 13.8 mph 25.3 mph N/A   Overcast
7:35 AM 35.2 °F 25.0 °F 31.5 °F 86% 29.96 in 10.0 mi East 17.3 mph 24.2 mph N/A Rain Light Rain
7:55 AM 35.6 °F 25.2 °F 31.8 °F 86% 29.95 in 10.0 mi East 18.4 mph 25.3 mph N/A Rain Light Rain
8:15 AM 35.6 °F 25.5 °F 32.0 °F 87% 29.95 in 10.0 mi East 17.3 mph 24.2 mph N/A Rain Light Rain
8:35 AM 35.8 °F 25.4 °F 32.0 °F 86% 29.95 in 10.0 mi East 18.4 mph 23.0 mph N/A Rain Light Rain
8:55 AM 36.5 °F 26.0 °F 32.0 °F 84% 29.95 in 10.0 mi East 19.6 mph - N/A   Overcast
9:15 AM 36.9 °F 27.1 °F 32.2 °F 83% 29.93 in 10.0 mi East 17.3 mph 26.5 mph N/A Rain Rain
9:35 AM 37.0 °F 26.7 °F 32.5 °F 84% 29.92 in 7.0 mi East 19.6 mph 31.1 mph N/A Rain Light Rain
9:55 AM 37.4 °F 28.5 °F 32.9 °F 84% 29.93 in 10.0 mi East 15.0 mph 24.2 mph N/A Rain Light Rain
10:15 AM 37.8 °F 28.6 °F 32.2 °F 80% 29.94 in 10.0 mi East 16.1 mph 26.5 mph N/A Rain Light Rain
10:35 AM 38.3 °F 29.3 °F 32.5 °F 80% 29.95 in 7.0 mi East 16.1 mph 21.9 mph 0.01 in Rain Light Rain
10:55 AM 38.3 °F 30.9 °F 32.9 °F 81% 29.97 in 10.0 mi East 11.5 mph 17.3 mph 0.01 in Rain Light Rain
11:15 AM 38.3 °F 30.5 °F 33.4 °F 83% 29.96 in 10.0 mi East 12.7 mph - 0.01 in Rain Light Rain
11:35 AM 38.3 °F 30.5 °F 34.2 °F 85% 29.95 in 7.0 mi ENE 12.7 mph - 0.03 in Rain , Thunderstorm Light Thunderstorms and Rain
11:55 AM 38.5 °F 31.1 °F 34.7 °F 86% 29.95 in 10.0 mi East 11.5 mph 19.6 mph 0.04 in Rain Light Rain
12:15 PM 39.0 °F 29.9 °F 34.0 °F 82% 29.95 in 10.0 mi East 17.3 mph 23.0 mph N/A Rain Light Rain
12:35 PM 38.8 °F 29.7 °F 34.2 °F 83% 29.93 in 5.0 mi ENE 17.3 mph 26.5 mph 0.04 in Rain Light Rain
12:55 PM 38.3 °F 29.3 °F 34.5 °F 86% 29.95 in 5.0 mi East 16.1 mph 23.0 mph 0.07 in Rain Rain
1:15 PM 38.3 °F 30.1 °F 34.9 °F 87% 29.95 in 3.0 mi East 13.8 mph 23.0 mph 0.04 in Rain Rain
1:35 PM 37.9 °F 28.9 °F 34.9 °F 89% 29.94 in 2.5 mi East 16.1 mph 24.2 mph 0.06 in Rain Rain
1:55 PM 38.1 °F 28.8 °F 34.7 °F 87% 29.93 in 7.0 mi East 17.3 mph 27.6 mph 0.07 in Rain Light Rain
2:15 PM 38.3 °F 29.7 °F 34.2 °F 85% 29.94 in 10.0 mi East 15.0 mph 27.6 mph N/A Rain Light Rain
2:35 PM 38.1 °F 29.1 °F 34.7 °F 87% 29.93 in 5.0 mi East 16.1 mph 26.5 mph 0.03 in Rain Rain
2:55 PM 37.0 °F 28.5 °F 35.8 °F 95% 29.93 in 4.0 mi East 13.8 mph 21.9 mph 0.06 in Rain Rain
3:15 PM 36.9 °F 26.2 °F 35.8 °F 96% 29.90 in 3.0 mi East 20.7 mph 28.8 mph 0.04 in Rain Rain
3:35 PM 37.0 °F 26.4 °F 36.0 °F 96% 29.88 in 10.0 mi East 20.7 mph 26.5 mph 0.05 in Rain Light Rain
3:55 PM 37.8 °F 28.0 °F 36.7 °F 96% 29.87 in 10.0 mi East 18.4 mph 26.5 mph 0.05 in   Overcast
4:15 PM 37.4 °F 27.5 °F 36.0 °F 95% 29.86 in 10.0 mi East 18.4 mph 24.2 mph N/A Rain Rain
4:35 PM 37.4 °F 27.8 °F 36.3 °F 96% 29.86 in 10.0 mi East 17.3 mph 24.2 mph N/A   Overcast
4:55 PM 37.9 °F 29.6 °F 36.5 °F 95% 29.84 in 10.0 mi East 13.8 mph 25.3 mph N/A Thunderstorm Overcast
5:15 PM 39.6 °F 31.0 °F 33.6 °F 79% 29.83 in 10.0 mi East 16.1 mph 27.6 mph N/A   Overcast
5:35 PM 39.6 °F 31.3 °F 32.9 °F 77% 29.82 in 10.0 mi East 15.0 mph 27.6 mph N/A   Overcast
5:55 PM 38.1 °F 28.8 °F 33.3 °F 83% 29.83 in 3.0 mi East 17.3 mph 27.6 mph 0.02 in Rain , Thunderstorm Light Thunderstorms and Rain
6:15 PM 37.8 °F 28.0 °F 33.8 °F 86% 29.83 in 3.0 mi ENE 18.4 mph - 0.05 in Rain , Thunderstorm Light Thunderstorms and Rain
6:35 PM 38.3 °F 29.7 °F 33.8 °F 84% 29.85 in 10.0 mi East 15.0 mph 24.2 mph 0.05 in   Overcast
6:55 PM 38.3 °F 28.4 °F 33.8 °F 84% 29.86 in 10.0 mi East 19.6 mph 27.6 mph 0.05 in Thunderstorm Overcast
7:15 PM 37.9 °F 28.9 °F 33.8 °F 85% 29.86 in 10.0 mi East 16.1 mph 26.5 mph N/A Thunderstorm Overcast
7:35 PM 38.3 °F 29.7 °F 33.4 °F 83% 29.91 in 5.0 mi East 15.0 mph 23.0 mph 0.02 in Rain , Thunderstorm Thunderstorms and Rain
7:55 PM 37.8 °F 30.2 °F 34.2 °F 87% 29.91 in 7.0 mi East 11.5 mph - 0.06 in Rain Light Rain
8:15 PM 37.4 °F 28.2 °F 34.2 °F 88% 29.90 in 10.0 mi East 16.1 mph - N/A   Drizzle
8:35 PM 37.6 °F 28.1 °F 34.0 °F 87% 29.88 in 10.0 mi East 17.3 mph 25.3 mph N/A Rain Light Rain
8:55 PM 37.8 °F 27.4 °F 33.8 °F 86% 29.87 in 10.0 mi East 20.7 mph 28.8 mph N/A   Overcast
9:15 PM 38.3 °F 29.0 °F 34.0 °F 84% 29.86 in 10.0 mi East 17.3 mph 25.3 mph N/A   Overcast
9:35 PM 38.5 °F 28.3 °F 33.8 °F 83% 29.85 in 10.0 mi East 20.7 mph 29.9 mph N/A   Overcast
9:55 PM 39.2 °F 30.5 °F 34.0 °F 82% 29.85 in 10.0 mi East 16.1 mph 27.6 mph N/A   Overcast
10:15 PM 39.7 °F 29.2 °F 33.8 °F 79% 29.83 in 10.0 mi East 24.2 mph 33.4 mph N/A   Overcast
10:35 PM 40.1 °F 30.7 °F 34.0 °F 79% 29.83 in 10.0 mi East 19.6 mph 27.6 mph N/A   Drizzle
10:55 PM 40.1 °F 29.9 °F 34.3 °F 80% 29.82 in 10.0 mi East 23.0 mph 31.1 mph N/A Rain Light Rain
11:15 PM 39.7 °F 30.6 °F 34.9 °F 83% 29.81 in 7.0 mi ESE 18.4 mph 28.8 mph N/A Rain Light Rain
11:35 PM 40.1 °F 31.0 °F 34.7 °F 81% 29.81 in 10.0 mi ESE 18.4 mph 27.6 mph N/A   Mostly Cloudy
11:55 PM 40.1 °F 31.3 °F 34.7 °F 81% 29.79 in 10.0 mi East 17.3 mph 26.5 mph N/A   Overcast